Date,TemperatureHighF,TemperatureAvgF,TemperatureLowF,DewpointHighF,DewpointAvgF,DewpointLowF,HumidityHigh,HumidityAvg,HumidityLow,PressureMaxIn,PressureMinIn,WindSpeedMaxMPH,WindSpeedAvgMPH,GustSpeedMaxMPH,PrecipitationSumIn
2014-1-1,-0.9,-4.5,-9.6,-12.2,-15.6,-20.4,58,58,58,30.46,30.37,7,4,12,0.00
2014-1-2,2.1,-9.4,-18.9,-9.3,-20.2,-29.2,58,58,58,30.52,30.37,5,2,8,0.00
2014-1-3,29.1,9.9,-16.4,21.9,-1.2,-26.8,74,60,56,30.37,29.45,21,11,27,0.00
2014-1-4,34.5,12.5,-6.3,30.7,-3.6,-25.9,89,49,36,30.28,29.45,14,1,17,0.00
2014-1-5,0.0,-13.1,-23.1,-21.3,-32.0,-41.1,37,37,37,30.40,30.28,0,0,0,0.00
2014-1-6,0.0,-18.8,-25.1,-30.3,-37.2,-42.9,37,37,37,30.34,30.19,0,0,0,0.00
2014-1-7,8.6,-6.5,-18.0,-12.4,-26.0,-36.5,37,37,37,30.28,30.13,0,0,0,0.00
2014-1-8,5.0,-9.4,-19.8,-15.6,-28.7,-38.1,37,37,37,30.46,30.28,0,0,0,0.00
2014-1-9,20.5,10.1,-10.8,10.5,-6.4,-30.0,75,48,37,30.40,29.90,0,0,0,0.00
2014-1-10,29.8,25.5,16.3,29.8,24.4,8.3,100,96,70,29.90,29.54,0,0,0,0.00
2014-1-11,29.7,24.1,0.0,29.7,21.9,14.9,100,92,63,29.72,29.51,0,0,0,0.00
2014-1-12,36.7,32.2,0.0,26.6,20.6,13.0,90,63,46,29.66,29.36,15,4,17,0.00
2014-1-13,32.5,27.4,19.8,23.3,15.0,7.0,78,60,40,29.72,29.54,9,3,13,0.00
2014-1-14,28.2,18.4,0.0,22.2,5.3,-12.6,80,57,40,30.16,29.51,10,4,17,0.00
2014-1-15,29.5,10.6,-7.8,17.6,-3.7,-23.1,75,52,45,30.16,29.45,18,7,25,0.00
2014-1-16,34.0,14.3,2.8,25.6,-4.6,-18.1,79,43,36,29.93,29.42,8,1,15,0.00
2014-1-17,15.3,4.4,-5.4,-7.5,-16.8,-25.6,36,36,35,30.07,29.78,0,0,0,0.00
2014-1-18,23.0,14.5,5.4,11.0,1.6,-11.0,80,57,36,29.99,29.51,0,0,0,0.00
2014-1-19,37.6,27.2,15.8,20.0,14.2,5.0,78,58,43,29.78,29.48,14,4,17,0.00
2014-1-20,27.1,12.6,-9.6,21.8,1.3,-22.4,87,60,51,30.46,29.75,14,6,20,0.00
2014-1-21,6.8,-8.5,-24.0,-7.1,-21.6,-35.9,52,52,52,30.49,29.99,10,4,13,0.00
2014-1-22,7.7,0.2,-15.0,-6.3,-13.3,-27.5,52,52,52,30.52,29.99,12,4,20,0.00
2014-1-23,1.8,-11.7,-24.9,-11.8,-24.4,-36.8,52,52,52,30.72,30.16,17,5,23,0.00
2014-1-24,34.0,24.1,1.9,34.0,11.4,-11.7,100,59,33,30.16,29.54,18,7,24,0.00
2014-1-25,26.1,6.9,-0.9,1.5,-16.8,-23.8,35,32,31,29.99,29.51,0,0,0,0.00
2014-1-26,18.1,6.4,-10.5,6.6,-14.3,-29.6,67,38,32,30.13,29.42,0,0,0,0.00
2014-1-27,0.0,-13.1,-21.8,-23.8,-32.0,-39.9,37,37,37,30.43,30.13,0,0,0,0.00
2014-1-28,1.2,-10.9,-23.4,-19.1,-30.1,-41.4,37,37,37,30.40,30.13,9,2,13,0.00
2014-1-29,30.7,10.7,-10.7,8.2,-10.3,-29.8,49,38,32,30.13,29.57,17,7,22,0.00
2014-1-30,24.4,11.3,-13.4,16.0,-0.3,-26.0,83,55,46,30.10,29.48,14,5,21,0.00
2014-1-31,9.5,-4.3,-18.2,-4.6,-17.6,-30.5,52,52,52,30.16,30.01,10,3,13,0.00
2014-2-1,23.0,9.2,-7.4,3.3,-8.2,-26.4,54,44,37,30.25,29.93,10,4,12,0.00
2014-2-2,13.5,-2.9,-17.3,-7.5,-22.4,-35.4,38,37,38,30.31,30.19,10,2,13,0.00
2014-2-3,17.2,3.7,-6.3,-1.0,-14.7,-25.4,47,38,38,30.37,30.16,9,2,10,0.00
2014-2-4,6.3,-0.5,-5.4,-11.0,-17.3,-21.8,44,40,44,30.49,30.37,9,3,13,0.00
2014-2-5,7.9,-2.4,-13.0,-9.6,-19.1,-28.8,44,34,44,30.55,30.49,7,2,11,0.00
2014-2-6,3.7,-6.6,-19.5,-13.4,-24.0,-34.7,44,33,44,30.49,30.25,14,4,15,0.00
2014-2-7,10.8,-1.4,-11.4,-6.9,-17.5,-27.3,44,25,44,30.25,30.13,12,4,15,0.00
2014-2-8,16.7,4.6,-7.4,-1.0,-12.3,-23.6,47,36,44,30.17,28.88,7,1,8,0.00
2014-2-9,8.4,-7.1,-17.3,-7.7,-22.0,-31.5,47,47,47,30.40,30.17,6,1,11,0.00
2014-2-10,7.7,-10.4,-23.6,-8.4,-25.1,-37.4,47,47,47,30.46,30.40,5,1,8,0.00
2014-2-11,12.9,-1.2,-19.1,-3.6,-16.6,-33.2,47,47,47,30.43,30.02,16,7,25,0.00
2014-2-12,25.2,17.6,0.0,12.8,6.1,-3.6,83,61,43,30.08,29.78,12,5,15,0.00
2014-2-13,30.2,14.7,-0.9,20.2,1.7,-17.7,82,56,44,29.78,29.46,17,6,21,0.00
2014-2-14,16.2,4.9,-5.4,-4.1,-13.9,-25.6,44,41,35,30.02,29.75,7,2,11,0.00
2014-2-15,18.5,9.8,-6.9,9.7,-6.5,-26.9,76,46,36,30.05,29.75,13,4,15,0.00
2014-2-16,20.3,15.3,6.4,7.1,-0.2,-6.3,63,50,41,30.23,29.93,13,6,16,0.00
2014-2-17,34.0,23.1,13.6,34.0,20.4,5.5,100,91,52,29.93,29.67,14,4,19,0.00
2014-2-18,43.2,30.5,0.0,22.8,15.2,9.2,100,53,35,29.78,29.55,9,3,11,0.08
2014-2-19,37.6,25.2,13.8,25.6,17.5,10.4,94,76,45,29.84,29.78,8,4,9,0.00
2014-2-20,37.6,30.9,0.0,31.2,24.8,6.0,94,77,45,29.78,29.34,10,2,15,0.00
2014-2-21,18.1,10.1,2.7,5.8,-0.1,-5.0,74,64,44,29.75,29.40,6,1,13,0.00
2014-2-22,17.8,5.9,-5.1,-2.0,-10.2,-19.4,49,47,37,30.02,29.75,8,4,12,0.00
2014-2-23,19.4,9.0,-12.5,-2.8,-11.0,-30.5,39,37,36,30.29,30.20,8,3,11,0.00
2014-2-24,11.7,3.8,-15.7,-8.6,-15.7,-33.4,39,39,39,30.34,30.29,6,2,9,0.00
2014-2-25,10.2,-4.6,-19.5,-9.9,-23.4,-36.9,39,39,39,30.38,30.26,8,3,13,0.00
2014-2-26,21.2,-3.9,-21.8,1.1,-21.8,-39.0,48,33,36,30.34,28.47,18,5,22,0.00
2014-2-27,0.3,-9.9,-21.1,-19.4,-29.3,-38.8,38,35,38,30.19,29.95,7,1,9,0.00
2014-2-28,15.1,1.6,-16.2,-0.7,-15.2,-34.4,49,37,38,30.16,28.73,10,4,12,0.00
2014-3-1,2.8,-1.8,-4.5,-12.0,-16.4,-18.9,49,47,49,30.45,30.16,9,5,14,0.00
2014-3-2,6.3,-9.7,-26.1,-8.9,-23.7,-39.0,49,48,49,30.54,30.45,7,2,10,0.00
2014-3-3,8.8,1.8,-16.8,-6.5,-13.0,-30.3,49,49,49,30.48,30.19,8,4,10,0.00
2014-3-4,20.3,13.5,0.0,4.0,-3.8,-8.5,65,45,36,30.27,30.13,6,4,10,0.00
2014-3-5,23.2,15.0,9.0,4.0,1.8,-1.0,65,57,36,30.39,30.27,7,3,11,0.00
2014-3-6,24.3,14.9,0.0,13.1,1.2,-10.1,62,53,38,30.30,29.95,17,8,22,0.00
2014-3-7,34.9,27.4,0.0,27.8,13.0,-3.0,83,55,40,30.19,29.77,10,5,16,0.00
2014-3-8,27.9,14.8,4.3,5.9,-1.3,-10.7,60,49,33,30.30,30.16,8,3,9,0.00
2014-3-9,41.0,21.3,0.0,27.3,10.4,0.0,71,43,40,30.16,29.65,16,7,20,0.00
2014-3-10,49.6,26.2,0.0,28.8,17.3,0.0,82,42,33,29.71,29.62,8,2,10,0.00
2014-3-11,41.2,33.4,0.0,30.8,18.0,0.0,77,48,32,30.04,29.71,9,4,13,0.00
2014-3-12,32.0,21.7,12.2,10.5,3.3,-1.8,60,45,31,30.13,30.01,9,3,13,0.00
2014-3-13,48.2,36.0,0.0,30.7,21.6,0.0,86,57,38,30.01,29.54,11,6,14,0.00
2014-3-14,44.6,35.4,23.4,27.1,20.1,8.8,73,54,38,29.95,29.54,8,3,15,0.00
2014-3-15,29.3,24.4,0.0,9.7,3.5,-4.6,55,40,31,30.39,29.95,8,5,12,0.00
2014-3-16,26.4,18.9,0.0,9.6,-3.6,-12.4,52,36,32,30.45,29.98,11,4,15,0.00
2014-3-17,39.4,30.3,0.0,20.4,14.4,0.0,63,51,41,29.98,29.54,16,9,21,0.00
2014-3-18,36.5,28.6,0.0,28.2,17.8,0.0,100,58,40,29.80,29.59,10,6,15,0.00
2014-3-19,39.9,29.1,0.0,28.0,20.5,0.0,100,69,39,29.98,29.80,10,4,14,0.00
2014-3-20,45.0,32.6,0.0,34.5,21.3,0.0,100,66,29,30.01,29.86,8,3,10,0.00
2014-3-21,42.1,32.2,0.0,26.3,18.5,0.0,70,55,44,30.19,29.74,12,5,17,0.00
2014-3-22,24.3,12.5,0.0,0.0,-3.8,-9.1,50,36,33,30.48,30.19,10,6,15,0.00
2014-3-23,28.4,15.0,0.0,5.5,-4.4,-17.7,52,34,31,30.48,30.30,8,2,11,0.00
2014-3-24,33.3,24.1,16.3,18.0,5.4,-2.1,66,45,30,30.33,30.10,12,3,17,0.00
2014-3-25,24.4,16.8,0.0,7.9,-5.2,-13.4,55,36,32,30.27,30.13,14,4,19,0.00
2014-3-26,43.5,29.0,0.0,17.7,7.3,-9.7,55,39,30,30.13,29.54,16,8,25,0.00
2014-3-27,42.1,37.1,0.0,39.7,34.9,0.0,100,93,40,29.77,29.45,19,7,25,0.00
2014-3-28,34.9,29.8,21.2,24.4,11.8,2.6,76,48,31,30.25,29.77,14,5,17,0.00
2014-3-29,42.8,30.9,0.0,22.8,12.0,0.0,72,47,24,30.27,30.01,10,3,13,0.00
2014-3-30,61.9,46.3,0.0,34.4,26.0,0.0,67,45,29,30.01,29.71,17,7,22,0.00
2014-3-31,60.1,45.2,0.0,43.4,32.1,0.0,92,59,39,29.71,29.33,19,8,28,0.00
2014-4-1,36.0,27.2,0.0,32.7,16.7,7.0,100,63,44,30.10,29.39,10,5,23,0.00
2014-4-2,44.1,31.8,0.0,15.4,11.5,7.1,69,44,28,30.19,30.04,7,4,12,0.00
2014-4-3,36.3,33.1,0.0,31.3,24.8,10.6,100,73,34,30.04,29.77,8,3,13,0.00
2014-4-4,43.0,31.9,25.2,32.0,22.5,13.8,100,74,31,30.07,29.71,14,2,20,0.00
2014-4-5,48.4,34.0,0.0,29.3,21.0,13.8,96,62,37,30.10,29.92,14,5,19,0.00
2014-4-6,63.0,47.2,0.0,37.1,26.5,19.0,69,44,25,29.92,29.80,15,7,18,0.00
2014-4-7,59.9,46.9,36.5,47.9,28.5,14.3,96,55,24,29.83,29.77,14,3,20,0.00
2014-4-8,54.5,41.0,31.1,25.5,19.6,12.4,69,45,23,30.02,28.79,10,4,16,0.08
2014-4-9,70.0,50.9,30.2,32.1,25.1,16.6,76,40,22,29.99,29.51,17,8,24,0.24
2014-4-10,62.6,50.7,36.1,31.1,20.4,14.5,56,32,16,29.96,29.57,8,3,17,0.00
2014-4-11,65.1,50.0,35.4,26.2,22.1,16.7,59,36,18,29.96,29.90,8,2,13,0.00
2014-4-12,62.1,51.3,44.2,36.9,30.7,19.7,68,47,30,29.90,29.69,9,5,13,0.00
2014-4-13,46.2,39.3,0.0,37.0,24.3,10.1,82,56,37,29.96,29.72,14,8,24,0.00
2014-4-14,39.6,30.3,21.2,10.5,2.2,-5.8,42,31,21,30.14,29.96,17,8,26,0.00
2014-4-15,38.3,26.8,11.7,4.8,-0.4,-5.6,53,32,21,30.19,30.02,9,3,11,0.00
2014-4-16,39.0,33.0,0.0,32.9,18.6,4.8,100,61,30,30.02,29.84,10,6,15,0.00
2014-4-17,43.0,32.2,25.7,26.1,18.1,10.7,89,58,32,30.31,29.99,8,1,10,0.00
2014-4-18,52.9,39.3,23.5,31.0,19.9,14.2,80,50,27,30.34,30.14,10,4,17,4.72
2014-4-19,70.9,53.2,0.0,43.0,28.3,18.9,71,39,22,30.14,29.96,22,7,26,0.00
2014-4-20,76.1,60.7,46.2,46.0,35.4,23.9,94,47,15,30.05,29.93,7,2,10,0.04
2014-4-21,66.4,57.3,39.9,56.8,34.6,16.1,96,48,23,30.11,29.90,10,4,17,0.28
2014-4-22,59.5,46.2,0.0,28.3,19.6,11.4,72,38,19,30.17,30.05,11,3,13,0.00
2014-4-23,44.4,41.6,39.4,35.8,24.6,13.8,84,53,32,30.08,29.87,10,6,15,0.24
2014-4-24,47.5,37.0,0.0,47.3,38.2,31.0,100,77,66,29.90,29.66,8,3,11,0.75
2014-4-25,66.6,47.4,0.0,52.7,33.6,23.5,100,68,23,29.90,28.61,8,3,13,0.00
2014-4-26,54.9,44.6,0.0,29.5,22.5,17.9,66,42,26,30.00,29.86,11,6,14,0.08
2014-4-27,46.6,40.7,0.0,42.8,34.9,25.2,100,81,44,29.86,29.56,13,9,17,1.97
2014-4-28,43.5,41.7,0.0,43.3,38.9,33.1,100,87,68,29.65,29.56,13,8,17,1.34
2014-4-29,41.5,37.1,0.0,35.8,33.2,30.2,100,84,69,29.77,29.62,15,9,27,0.63
2014-4-30,45.3,39.8,36.3,39.9,34.4,28.0,100,82,53,29.80,29.74,13,7,20,0.08
2014-5-1,49.8,42.4,37.2,38.8,33.6,27.9,94,73,44,29.86,29.74,10,4,15,0.04
2014-5-2,58.8,47.1,37.8,38.4,31.9,23.0,95,59,30,29.86,29.62,14,4,20,0.00
2014-5-3,60.4,47.8,0.0,38.0,26.6,18.6,86,48,22,29.98,29.74,9,2,15,0.00
2014-5-4,58.3,46.1,33.3,23.1,17.6,13.4,58,34,19,30.12,29.98,8,4,13,0.00
2014-5-5,66.0,55.7,45.9,23.6,20.3,17.4,38,26,18,30.00,29.89,10,3,13,0.00
2014-5-6,65.8,54.1,0.0,27.2,23.5,21.2,51,31,20,29.95,29.74,11,6,17,0.00
2014-5-7,65.3,58.5,51.6,38.1,30.8,24.0,47,35,28,29.77,29.65,10,6,15,0.00
2014-5-8,68.0,57.0,51.4,59.9,50.4,36.0,100,81,45,29.77,29.53,10,4,17,1.22
2014-5-9,59.4,50.1,40.3,59.4,39.8,27.7,100,71,34,29.83,29.53,16,6,23,0.00
2014-5-10,68.7,53.5,37.9,51.7,36.8,28.1,100,59,23,29.89,29.74,14,4,18,0.20
2014-5-11,68.2,57.8,46.2,58.5,47.1,38.0,100,72,33,29.89,29.74,9,2,15,0.39
2014-5-12,59.5,53.8,47.5,59.5,53.4,46.3,100,99,93,29.86,29.68,9,3,13,0.35
2014-5-13,54.9,46.8,36.3,47.5,31.4,20.7,100,58,27,30.18,29.83,8,3,17,0.00
2014-5-14,59.9,47.1,34.0,39.8,24.9,14.7,95,49,22,30.21,30.15,9,4,13,0.00
2014-5-15,49.8,42.8,36.9,23.0,18.6,14.7,55,39,27,30.18,30.12,10,6,17,0.00
2014-5-16,55.0,44.7,35.1,26.8,18.5,9.9,67,38,18,30.12,30.03,8,2,10,0.00
2014-5-17,68.0,51.7,0.0,26.1,20.2,15.1,60,32,15,30.06,29.98,12,4,17,0.00
2014-5-18,73.2,60.0,43.9,31.5,23.3,16.6,49,26,15,30.06,29.95,18,7,29,0.00
2014-5-19,61.3,55.3,52.2,54.5,43.6,20.9,100,73,21,30.00,29.74,9,6,15,0.51
2014-5-20,76.1,60.7,50.5,63.3,51.6,33.7,100,78,22,29.89,29.74,8,2,9,0.00
2014-5-21,66.0,57.4,46.2,55.3,38.4,30.7,91,52,30,30.15,29.86,9,3,13,0.00
2014-5-22,71.6,57.5,42.8,48.2,32.7,22.2,94,46,19,30.21,30.12,7,2,10,0.00
2014-5-23,77.7,62.9,46.2,41.8,30.2,23.1,69,33,15,30.24,30.09,7,2,15,0.00
2014-5-24,81.5,68.3,55.4,34.8,30.1,24.3,40,25,14,30.15,30.00,11,4,16,0.00
2014-5-25,77.7,67.3,52.0,51.4,40.3,28.3,57,38,25,30.06,29.89,12,3,17,0.00
2014-5-26,82.4,69.4,0.0,65.6,55.9,43.0,96,66,26,29.95,29.86,10,4,14,0.24
2014-5-27,73.2,66.6,60.1,68.2,61.0,50.0,100,84,45,30.00,29.89,9,3,13,0.16
2014-5-28,81.3,67.7,54.7,59.4,47.4,36.3,97,54,21,30.09,29.98,6,2,10,0.00
2014-5-29,84.7,70.0,54.3,49.0,36.1,24.5,74,36,13,30.12,30.03,6,2,8,0.00
2014-5-30,87.8,74.8,0.0,52.6,42.6,29.2,63,33,19,30.12,30.00,6,2,8,0.00
2014-5-31,85.6,72.6,0.0,69.1,57.3,43.6,100,63,23,30.06,29.89,12,4,16,2.17
2014-6-1,74.5,66.5,0.0,68.0,64.4,55.5,100,92,55,29.92,29.74,14,5,17,1.54
2014-6-2,78.3,67.8,0.0,70.9,56.8,44.5,100,71,36,29.89,29.71,14,4,22,0.20
2014-6-3,74.8,64.0,50.5,61.2,46.1,39.2,100,57,28,30.00,29.86,7,2,10,0.00
2014-6-4,79.9,69.1,58.8,52.1,41.9,31.1,75,42,20,29.92,29.83,6,1,10,0.00
2014-6-5,74.5,65.1,59.2,61.2,50.6,41.3,97,62,32,29.92,29.86,14,5,18,0.00
2014-6-6,84.7,68.1,56.5,69.3,53.0,37.3,100,66,19,29.98,29.89,8,1,15,1.10
2014-6-7,63.7,57.7,51.3,59.7,50.0,42.0,100,77,49,30.09,29.92,13,4,21,0.24
2014-6-8,72.9,60.4,46.4,63.0,38.3,26.3,100,53,20,30.15,30.06,4,0,8,0.00
2014-6-9,69.6,61.4,54.5,49.2,39.1,31.7,75,46,28,30.06,29.98,5,1,8,0.08
2014-6-10,78.6,66.3,52.5,55.8,44.5,36.1,88,50,24,29.98,29.86,5,1,7,0.00
2014-6-11,81.3,69.7,58.5,55.5,43.0,35.0,72,42,21,29.89,29.65,9,3,13,0.16
2014-6-12,64.6,58.2,48.0,62.0,40.1,29.9,93,53,29,30.00,29.68,10,3,17,0.00
2014-6-13,76.8,62.0,44.2,55.2,35.7,26.7,93,45,18,30.06,29.89,8,1,10,0.00
2014-6-14,65.8,59.7,0.0,55.6,45.7,29.4,84,59,29,29.95,29.65,14,4,22,1.10
2014-6-15,75.0,64.5,57.7,66.0,52.7,42.0,100,71,32,29.86,29.47,14,6,24,0.67
2014-6-16,81.9,66.5,0.0,59.3,51.1,41.2,86,60,24,29.92,29.65,14,6,19,0.47
2014-6-17,80.6,70.6,59.2,62.7,53.5,45.4,95,58,30,29.86,29.68,7,2,10,0.08
2014-6-18,82.9,74.2,66.2,73.2,60.2,50.7,100,65,35,29.92,29.77,6,3,10,0.12
2014-6-19,75.0,69.0,0.0,73.2,66.0,58.4,100,91,57,30.00,29.83,10,4,17,5.31
2014-6-20,82.8,73.2,65.7,73.2,57.7,39.4,100,67,22,29.98,29.83,11,3,14,0.00
2014-6-21,84.6,73.0,0.0,66.7,50.7,38.0,95,52,20,29.95,29.83,4,1,8,0.00
2014-6-22,79.9,70.5,64.0,62.3,55.7,50.2,82,62,36,29.92,29.80,6,1,12,0.00
2014-6-23,81.1,70.7,61.7,71.8,53.7,40.9,100,62,26,29.92,29.83,8,1,10,0.00
2014-6-24,82.8,71.1,59.9,68.4,49.7,39.0,100,54,22,29.98,29.92,7,1,11,0.08
2014-6-25,72.5,64.5,58.6,61.2,51.2,42.0,95,65,34,30.09,29.98,7,3,9,0.00
2014-6-26,85.6,70.1,58.1,69.6,58.0,47.3,100,71,29,30.06,29.86,22,2,31,0.83
2014-6-27,81.3,73.0,67.8,73.6,62.8,52.0,100,74,39,29.92,29.77,17,4,21,0.08
2014-6-28,81.7,73.2,68.9,71.6,66.8,58.7,100,82,46,29.80,29.68,13,5,23,0.55
2014-6-29,83.5,71.6,61.3,69.8,52.6,35.4,100,59,20,29.77,29.71,13,6,23,0.00
2014-6-30,76.1,68.0,61.0,60.9,49.1,32.8,81,54,22,29.74,29.59,11,5,18,0.00
2014-7-1,73.6,63.5,56.5,56.8,47.2,37.3,79,56,35,29.89,29.59,10,5,17,0.00
2014-7-2,73.2,62.4,54.1,46.8,36.8,26.8,71,43,21,30.12,29.89,13,5,16,0.04
2014-7-3,78.1,64.0,52.2,54.5,38.5,27.4,87,46,18,30.21,30.12,5,1,8,0.00
2014-7-4,78.6,67.2,53.6,50.3,41.2,34.4,73,41,22,30.27,30.09,15,5,17,0.00
2014-7-5,84.2,73.7,65.1,60.7,52.0,47.1,72,48,29,30.12,29.89,15,9,22,0.00
2014-7-6,89.1,76.5,64.0,75.6,59.2,40.7,100,64,19,29.92,29.74,14,5,19,0.04
2014-7-7,87.4,70.7,58.5,68.3,54.4,41.5,100,63,21,29.83,29.68,8,2,22,0.20
2014-7-8,76.1,66.8,0.0,58.6,44.2,30.5,94,50,21,29.95,29.71,8,3,15,0.04
2014-7-9,80.8,66.1,51.6,61.0,41.5,32.9,95,48,19,30.03,29.95,8,1,11,0.00
2014-7-10,84.9,70.9,55.4,61.0,46.1,38.2,95,47,20,30.06,29.98,12,4,17,0.00
2014-7-11,82.4,72.4,66.0,67.5,59.1,46.3,100,66,43,30.03,29.95,16,6,23,0.71
2014-7-12,75.2,69.6,0.0,70.3,65.0,55.4,100,86,53,30.03,29.98,10,1,13,0.31
2014-7-13,78.1,67.3,54.3,65.5,45.9,30.0,100,55,21,30.03,29.92,8,2,13,0.00
2014-7-14,65.7,59.6,51.6,52.8,39.3,29.3,89,50,28,30.09,29.92,10,4,16,0.00
2014-7-15,71.6,61.1,49.8,52.3,38.3,30.7,89,47,23,30.12,30.03,9,3,15,0.00
2014-7-16,76.8,63.5,48.4,60.5,40.6,31.2,96,50,20,30.09,30.03,6,1,9,0.00
2014-7-17,80.2,66.0,52.2,55.8,42.7,33.8,93,49,20,30.06,30.00,11,3,15,0.00
2014-7-18,78.8,68.4,57.7,53.3,46.2,39.0,84,48,26,30.06,29.95,15,6,21,0.00
2014-7-19,71.6,65.6,0.0,55.6,52.9,47.5,74,62,49,29.98,29.92,11,7,16,0.00
2014-7-20,85.6,76.3,66.9,60.3,54.4,48.2,77,49,29,29.92,29.83,14,7,19,0.00
2014-7-21,89.4,79.5,70.3,70.7,61.9,55.4,79,56,37,29.92,29.80,10,5,15,0.00
2014-7-22,83.5,75.9,62.4,74.6,52.0,34.1,94,48,20,30.18,29.83,10,4,17,0.00
2014-7-23,82.9,68.8,56.8,56.7,41.7,30.3,84,43,19,30.27,30.18,6,2,9,0.00
2014-7-24,79.9,66.5,53.8,61.9,47.8,37.3,100,55,22,30.18,29.89,17,3,27,0.00
2014-7-25,82.0,72.2,63.7,66.6,58.8,49.2,100,66,38,29.95,29.77,14,5,17,0.39
2014-7-26,84.9,74.1,62.6,72.2,58.4,44.3,100,63,29,29.89,29.83,9,2,15,0.00
2014-7-27,75.9,66.1,59.4,56.2,49.4,42.4,86,57,33,30.15,29.83,10,4,15,0.00
2014-7-28,75.6,65.5,56.1,63.7,48.6,35.1,100,61,23,30.24,30.15,7,1,10,0.00
2014-7-29,79.7,65.2,0.0,65.7,45.4,35.7,100,56,21,30.18,30.06,6,2,11,0.00
2014-7-30,81.1,66.7,52.7,64.2,46.5,35.8,100,55,20,30.12,30.06,6,1,9,0.00
2014-7-31,83.3,67.9,53.1,65.3,46.8,36.0,100,54,20,30.06,30.03,7,1,10,0.00
2014-8-1,85.5,70.5,55.4,67.7,50.2,38.8,97,56,20,30.09,30.03,5,1,10,0.00
2014-8-2,86.5,71.9,0.0,68.0,51.9,40.0,100,56,20,30.15,30.09,10,2,13,0.00
2014-8-3,84.7,69.4,0.0,69.6,55.0,42.7,100,64,25,30.15,30.03,4,0,6,0.00
2014-8-4,79.2,69.4,0.0,68.7,55.1,41.9,100,64,31,30.09,30.06,6,2,11,0.12
2014-8-5,80.2,68.3,57.7,63.5,49.4,34.8,100,57,21,30.15,30.09,5,2,10,0.00
2014-8-6,81.5,69.2,58.3,61.9,48.9,37.0,91,55,21,30.12,30.03,5,1,7,0.00
2014-8-7,82.2,70.2,58.1,67.3,47.9,34.5,100,52,20,30.09,30.03,6,1,10,0.00
2014-8-8,81.0,71.3,62.6,59.7,48.6,37.9,80,48,22,30.12,30.06,8,2,11,0.00
2014-8-9,81.1,71.1,65.1,61.2,51.1,42.5,81,52,26,30.12,30.06,5,1,7,0.00
2014-8-10,81.7,70.5,0.0,66.3,57.1,45.7,95,65,30,30.09,29.98,9,2,12,0.12
2014-8-11,77.0,67.4,58.3,68.2,52.0,32.7,100,65,22,30.09,29.98,10,4,15,0.00
2014-8-12,67.6,55.5,50.9,61.9,49.6,43.9,100,82,54,30.12,30.06,6,1,8,0.00
2014-8-17,82.9,71.7,0.0,73.8,65.3,0.0,100,83,39,29.98,29.86,7,1,10,0.20
2014-8-18,86.9,72.7,63.7,77.2,60.7,46.0,100,73,28,29.86,29.68,9,2,14,0.04
2014-8-19,84.2,70.0,60.1,70.8,57.2,46.1,100,70,29,29.80,29.71,7,1,10,0.00
2014-8-20,84.2,71.3,0.0,72.9,57.3,45.1,100,66,27,29.89,29.80,6,1,10,0.00
2014-8-21,85.3,75.8,0.0,70.9,66.5,60.8,100,74,46,29.89,29.77,10,3,16,0.35
2014-8-22,81.0,73.3,67.8,72.7,64.8,54.0,100,78,40,30.03,29.89,5,1,8,0.00
2014-8-23,77.4,71.0,66.2,72.5,66.9,61.4,100,88,60,30.03,29.89,4,2,9,0.00
2014-8-24,86.4,76.2,66.0,72.0,65.8,56.4,100,73,37,29.89,29.80,10,3,13,0.04
2014-8-25,76.3,67.0,56.8,65.1,50.4,36.5,100,61,25,30.09,29.86,8,2,13,0.00
2014-8-26,75.4,62.3,50.2,57.2,44.9,33.2,100,60,23,30.24,30.09,6,1,11,0.00
2014-8-27,77.0,66.1,57.4,56.2,47.3,38.4,85,55,26,30.24,30.12,5,1,9,0.00
2014-8-28,69.1,63.9,57.6,63.6,58.1,51.1,100,82,55,30.12,29.89,4,2,8,0.00
2014-8-29,78.8,70.5,65.8,74.3,67.1,60.2,100,90,63,29.89,29.74,9,2,12,0.39
2014-8-30,76.1,68.6,0.0,73.8,64.1,56.2,100,85,53,29.89,29.77,7,1,9,0.59
2014-8-31,83.8,69.6,60.6,67.5,60.5,51.8,100,77,34,29.92,29.65,15,5,22,0.71
2014-9-1,77.2,67.5,0.0,69.1,55.8,41.5,100,72,30,29.83,29.65,10,2,12,0.04
2014-9-2,79.2,68.0,57.6,63.8,47.5,34.8,100,57,21,29.92,29.83,8,3,12,0.00
2014-9-3,79.3,67.5,57.4,67.3,61.2,52.5,100,82,47,29.92,29.68,11,4,16,0.35
2014-9-4,84.7,74.3,62.4,73.8,64.9,45.9,100,75,43,29.95,29.62,12,3,15,0.00
2014-9-5,65.1,57.4,46.9,55.6,42.8,34.1,100,62,34,30.21,29.95,8,2,14,0.00
2014-9-6,77.5,60.1,45.5,58.2,42.0,31.3,100,60,20,30.21,30.15,6,2,11,0.00
2014-9-7,76.1,60.3,48.4,57.7,42.5,32.7,100,59,21,30.15,30.00,12,4,17,0.00
2014-9-8,73.4,62.2,55.6,50.4,44.4,37.5,74,54,33,30.00,29.83,13,5,17,0.00
2014-9-9,73.6,65.0,0.0,68.5,59.4,49.9,100,82,59,29.86,29.71,6,1,10,0.00
2014-9-10,66.0,53.4,46.8,65.7,46.1,33.7,100,78,53,30.12,29.68,13,7,19,0.08
2014-9-11,58.1,48.4,39.7,45.1,30.6,22.1,87,54,25,30.36,30.12,7,3,11,0.00
2014-9-12,55.9,45.8,35.6,43.7,32.2,19.0,92,64,25,30.42,30.36,8,1,11,0.08
2014-9-13,61.2,47.1,31.3,50.4,27.9,20.6,100,55,22,30.36,30.12,13,4,18,0.00
2014-9-14,65.3,53.6,42.8,47.0,32.5,22.9,95,49,20,30.15,30.09,9,4,13,0.00
2014-9-15,61.7,51.3,0.0,52.9,35.1,21.2,94,58,21,30.21,30.12,8,1,12,0.04
2014-9-16,70.0,52.6,0.0,52.9,32.5,26.1,100,53,20,30.21,29.98,9,2,14,0.00
2014-9-17,77.2,62.4,52.7,46.3,39.5,32.5,75,46,21,30.00,29.92,6,2,9,0.00
2014-9-18,75.0,60.9,49.1,57.7,44.1,31.4,100,62,21,30.06,29.95,10,2,13,0.00
2014-9-19,79.3,65.2,0.0,59.7,50.0,42.8,75,58,39,29.98,29.65,16,6,25,0.00
2014-9-20,79.5,64.4,52.2,66.0,50.7,33.7,100,70,21,29.89,29.71,9,2,15,0.28
2014-9-21,66.7,56.8,46.6,54.5,42.1,32.6,100,64,30,30.21,29.89,10,3,13,0.04
2014-9-22,75.7,56.8,40.5,60.6,39.5,30.5,100,61,21,30.27,30.12,7,2,12,0.00
2014-9-23,73.4,59.9,46.2,53.1,40.9,30.9,100,57,22,30.18,30.09,16,3,18,0.04
2014-9-24,64.8,60.6,57.2,55.6,48.7,44.0,92,66,49,30.15,30.09,10,4,15,0.04
2014-9-25,79.2,66.0,56.5,60.8,52.0,43.5,100,66,29,30.18,30.12,6,3,11,0.00
2014-9-26,80.6,66.9,55.6,61.5,47.5,35.7,100,58,21,30.15,30.06,14,3,16,0.00
2014-9-27,81.5,69.0,61.0,55.3,47.2,36.0,79,50,21,30.12,30.06,14,4,16,0.00
2014-9-28,83.8,68.3,56.1,63.2,47.5,35.8,100,55,19,30.12,30.00,9,2,13,0.00
2014-9-29,63.1,55.9,0.0,61.4,43.6,34.4,94,64,43,30.12,30.00,8,4,13,0.00
2014-9-30,61.0,48.8,39.7,42.0,36.3,30.5,95,66,34,30.06,29.83,7,3,10,0.00
2014-10-1,52.7,52.2,51.8,52.7,42.0,40.6,100,68,65,29.80,29.80,5,4,8,0.00
2014-10-2,58.3,52.4,44.6,56.2,51.3,44.6,100,96,90,29.86,29.74,7,1,10,0.39
2014-10-3,49.8,43.8,38.1,48.0,25.7,12.6,100,54,27,29.86,29.74,10,5,22,0.00
2014-10-4,53.6,40.6,29.3,28.6,18.0,11.3,78,42,23,29.83,29.71,8,3,19,0.00
2014-10-5,51.3,39.1,0.0,33.2,23.6,15.8,85,56,28,29.71,29.56,8,2,13,0.00
2014-10-6,65.1,45.8,29.8,43.0,25.9,18.3,97,53,20,29.56,29.44,12,4,17,0.00
2014-10-7,64.2,49.5,37.0,44.1,27.2,16.3,87,46,18,29.86,29.47,8,3,14,0.00
2014-10-8,63.3,45.4,32.5,40.1,21.5,8.2,90,45,17,30.06,29.86,7,2,15,0.00
2014-10-9,58.5,40.6,27.0,33.6,17.3,10.5,80,43,19,30.21,30.06,8,2,11,0.00
2014-10-10,56.7,40.7,25.7,41.7,19.7,11.5,91,48,20,30.24,30.18,8,2,11,0.00
2014-10-11,59.2,42.0,25.5,37.4,18.5,10.3,100,45,17,30.21,29.95,10,2,14,0.00
2014-10-12,62.6,51.1,39.7,42.9,25.0,16.6,71,39,18,29.95,29.71,16,5,20,0.00
2014-10-13,54.3,51.8,49.8,54.3,48.9,42.6,100,90,71,29.80,29.74,11,4,15,0.04
2014-10-14,64.4,51.8,39.9,48.1,31.4,16.9,97,54,18,29.98,29.77,13,6,17,0.00
2014-10-15,68.9,48.5,33.6,41.7,25.7,16.9,91,47,17,30.00,29.83,6,1,8,0.00
2014-10-16,74.3,54.1,36.3,35.5,26.8,21.3,77,39,18,29.83,29.56,13,4,21,0.00
2014-10-17,56.5,49.5,0.0,37.5,32.2,27.6,81,51,39,30.06,29.59,10,4,17,0.00
2014-10-18,57.0,43.4,0.0,39.9,28.7,19.9,96,56,27,30.21,30.06,5,2,9,0.00
2014-10-19,73.9,52.9,0.0,38.5,31.1,24.6,100,49,18,30.06,29.77,12,5,18,0.00
2014-10-20,68.4,52.5,0.0,48.2,26.7,17.6,90,41,17,30.06,29.86,9,2,13,0.00
2014-10-21,63.1,53.4,38.7,33.7,27.2,23.2,71,39,24,30.15,30.06,6,4,10,0.00
2014-10-22,63.5,51.5,40.3,31.9,28.0,24.3,71,43,24,30.12,29.98,13,5,18,0.00
2014-10-23,55.8,53.6,52.5,54.1,50.1,31.8,100,90,40,29.98,29.95,10,5,15,0.04
2014-10-27,45.5,41.1,37.6,35.2,32.0,30.4,75,70,66,29.71,29.68,5,3,6,0.00
2014-10-28,47.8,40.2,0.0,41.4,29.3,20.1,88,66,47,29.98,29.68,10,5,19,0.00
2014-10-29,46.9,37.5,31.8,22.6,19.5,14.3,60,48,32,30.12,29.98,7,2,13,0.00
2014-10-30,50.2,40.1,31.1,30.8,22.2,-0.7,73,51,25,30.33,29.98,13,4,21,0.00
2014-10-31,40.6,29.1,0.0,8.7,2.6,-5.2,52,33,21,30.51,30.33,12,4,16,0.00
2014-11-1,45.1,31.0,0.0,10.6,6.4,-0.7,64,37,20,30.42,30.09,14,5,17,0.00
2014-11-2,57.7,45.4,35.4,20.4,12.7,7.0,38,27,19,30.09,29.80,17,8,22,0.00
2014-11-3,61.9,48.7,0.0,42.6,28.5,17.7,61,45,31,29.83,29.71,11,5,16,0.00
2014-11-4,56.7,40.5,0.0,26.5,18.5,11.5,67,43,22,29.98,29.83,16,4,24,0.00
2014-11-5,48.0,38.6,26.4,33.3,25.0,16.6,87,60,34,29.98,29.80,11,3,15,0.00
2014-11-6,44.2,35.5,27.1,34.2,22.1,14.2,93,61,31,30.24,30.00,10,3,15,0.00
2014-11-7,48.0,39.2,26.4,34.3,21.0,16.1,81,50,32,30.15,29.62,14,6,21,0.00
2014-11-8,44.1,37.1,30.2,23.2,12.6,8.0,53,37,23,30.09,29.83,10,5,22,0.00
2014-11-9,38.5,34.6,29.1,22.8,8.9,-0.4,57,35,24,30.21,29.80,8,2,11,0.00
2014-11-10,31.5,26.6,23.4,23.3,16.8,-0.8,83,68,25,30.81,29.48,15,9,25,0.16
2014-11-11,27.3,22.2,10.9,14.0,8.6,-2.5,71,56,42,31.84,30.34,14,6,23,0.00
2014-11-12,26.1,18.9,0.0,14.1,6.8,-4.5,75,58,44,31.96,30.75,6,2,10,0.00
2014-11-13,27.3,19.7,13.5,14.0,4.5,-3.3,71,52,35,31.96,31.58,8,3,13,0.00
2014-11-14,23.4,9.4,-1.3,1.3,-8.0,-19.8,56,45,33,31.96,31.84,7,1,9,0.00
2014-11-15,22.8,14.6,-2.2,16.2,2.4,-21.6,80,60,38,31.96,31.96,8,2,9,0.00
2014-11-16,20.8,9.2,-0.6,15.6,-2.2,-14.1,80,62,38,31.96,31.96,13,4,15,0.00
2014-11-17,16.5,7.4,0.9,-1.8,-12.4,-18.9,48,39,35,31.96,31.96,9,3,22,0.00
2014-11-18,19.2,11.2,-1.8,4.7,-6.5,-19.9,66,44,35,31.96,31.96,11,5,14,0.00
2014-11-19,27.0,19.1,9.5,12.3,2.8,-3.1,69,50,31,31.96,29.85,8,4,16,0.00
2014-11-20,21.9,9.0,-2.0,-0.5,-11.7,-23.6,56,38,32,29.85,29.85,5,1,10,0.00
2014-11-21,30.6,18.5,-1.8,22.6,0.2,-23.4,72,45,34,29.85,29.85,17,9,26,0.00
2014-11-22,46.6,35.4,30.7,46.6,33.9,22.8,100,94,72,29.85,29.85,13,7,21,0.00
2014-11-23,48.9,42.4,0.0,48.9,38.8,18.3,100,86,57,29.85,29.41,12,4,17,0.00
2014-11-24,30.2,18.9,9.5,20.2,5.6,-5.0,69,56,47,29.41,29.41,9,5,17,0.00
2014-11-25,24.1,16.3,2.5,8.4,-0.8,-11.6,67,47,32,29.41,29.41,6,2,10,0.00
2014-11-26,25.3,20.8,6.3,16.9,8.4,-10.6,75,59,45,29.41,29.41,8,5,13,0.00
2014-11-27,10.0,-0.4,-15.0,-7.1,-16.8,-30.2,45,45,45,29.41,29.41,6,2,10,0.00
2014-11-28,21.4,15.0,4.5,13.0,1.5,-12.2,75,55,45,29.41,29.41,7,4,9,0.00
2014-11-29,37.4,24.9,17.4,22.2,15.9,5.2,87,70,43,29.41,29.41,8,2,15,0.00
2014-11-30,18.5,8.3,-3.3,5.0,-10.9,-24.7,56,41,31,29.41,29.41,10,4,15,0.00
2014-12-1,7.0,-2.0,-14.3,-15.5,-23.5,-34.6,34,34,34,29.41,29.41,8,2,13,0.00
2014-12-2,22.1,14.0,2.5,3.3,-5.8,-19.6,49,41,34,29.41,29.41,17,7,24,0.00
2014-12-3,24.6,12.5,5.5,4.8,-7.0,-15.7,59,41,33,29.41,29.41,8,2,14,0.00
2014-12-4,30.7,23.9,12.6,12.6,2.7,-9.4,57,40,25,29.41,29.41,12,5,17,0.00
2014-12-5,33.8,28.9,14.2,32.9,23.9,9.1,97,82,53,29.41,29.41,9,3,13,0.00
2014-12-6,29.3,19.4,10.8,17.2,9.0,3.5,83,66,42,29.41,29.41,5,2,6,0.00
2014-12-7,33.8,29.6,20.3,33.8,20.9,8.4,100,72,53,29.41,29.41,15,9,21,0.00
2014-12-8,34.2,27.8,19.4,34.2,19.3,4.5,100,73,49,29.41,29.41,10,1,13,0.00
2014-12-9,21.4,17.9,7.5,18.1,7.9,-5.3,94,65,54,29.41,29.41,0,0,0,0.00
2014-12-10,29.5,26.3,19.6,28.6,21.6,18.1,100,83,65,29.41,29.41,0,0,0,0.00
2014-12-11,33.3,29.7,27.5,33.3,26.7,22.5,100,89,80,29.41,29.41,8,2,12,0.00
2014-12-12,38.1,34.7,33.3,38.1,33.5,29.2,100,95,82,29.41,29.41,14,6,15,0.00
2014-12-13,49.1,42.8,34.5,49.1,42.7,34.5,100,100,96,29.41,29.41,11,7,16,0.00
2014-12-14,52.2,50.3,47.8,52.2,50.3,47.8,100,100,100,29.41,29.41,10,6,13,0.00
2014-12-15,51.6,38.4,0.0,51.6,38.5,26.4,100,100,100,29.41,29.41,15,6,25,0.00
2014-12-16,26.1,18.4,8.1,26.1,10.1,-2.6,100,70,57,29.41,29.41,14,5,25,0.00
2014-12-17,21.9,12.1,5.0,6.2,-0.7,-5.5,69,56,44,29.41,29.41,7,1,9,0.00
2014-12-18,21.6,14.3,6.4,10.9,2.6,-5.6,72,59,52,29.41,29.41,5,1,6,0.00
2014-12-19,30.4,26.5,20.3,27.6,20.2,10.7,90,77,66,29.41,29.41,7,4,9,0.00
2014-12-20,31.1,30.2,0.0,31.1,25.7,19.5,100,84,66,29.41,29.41,12,6,16,0.00
2014-12-21,38.1,35.0,31.1,38.1,34.2,25.3,100,97,79,29.41,29.41,10,6,15,0.00
2014-12-22,39.2,36.9,35.2,39.2,36.9,35.2,100,100,100,29.41,29.41,9,6,14,0.00
2014-12-23,35.8,34.8,34.0,35.8,33.9,31.3,100,97,88,29.41,29.41,12,7,21,0.00
2014-12-24,35.1,33.1,29.8,32.8,30.5,25.6,94,90,84,29.41,29.41,9,4,13,0.00
2014-12-25,33.4,31.2,28.4,30.4,27.3,24.7,93,85,80,29.41,29.41,12,5,15,0.00
2014-12-26,32.4,30.0,25.5,31.1,24.4,17.5,95,80,61,29.41,29.41,11,7,15,0.00
2014-12-27,25.3,16.4,4.1,20.3,5.0,-12.6,83,62,44,29.41,29.41,10,5,16,0.00
2014-12-28,24.1,11.9,-0.4,15.5,-2.8,-16.7,73,51,45,29.41,29.41,6,2,9,0.00
2014-12-29,9.5,0.7,-13.2,-5.9,-14.1,-26.9,49,49,49,29.41,29.41,9,3,11,0.00
2014-12-30,4.5,-8.4,-17.5,-10.5,-22.5,-31.0,49,49,49,29.41,29.41,9,2,13,0.00
2014-12-31,11.1,0.9,-13.0,-4.3,-13.8,-26.8,49,49,49,29.41,29.41,17,8,25,0.00
2015-1-1,34.0,19.1,0.0,12.2,2.8,-10.8,63,49,38,29.87,29.41,10,4,15,0.00
2015-1-2,27.0,16.7,-0.4,12.6,0.5,-15.4,58,48,38,29.87,29.87,11,6,16,0.00